Estación de El Refugio

Ultimos registro cada 15 minutos 49
Estación Fecha / Hora Temperatura Humedad Lluvia Velocidad Dirección Radiación Presion
49 El Refugio 05-05-2026 12:30 21,6 48 0 0 279 403 1032,2
48 El Refugio 05-05-2026 12:15 20,9 49 0 0 279 309 1032,3
47 El Refugio 05-05-2026 12:00 20,3 51 0 0 281 596 1032,5
46 El Refugio 05-05-2026 11:45 19,7 53 0 0 280 584 1032,5
45 El Refugio 05-05-2026 11:30 19,4 52 0 0 46 547 1032,7
44 El Refugio 05-05-2026 11:15 18,5 51 0 0 46 592 1032,9
43 El Refugio 05-05-2026 11:00 18,1 52 0 0 46 181 1033,3
42 El Refugio 05-05-2026 10:45 17,6 53 0 0 46 221 1033,5
41 El Refugio 05-05-2026 10:30 17,1 55 0 0 46 192 1033,6
40 El Refugio 05-05-2026 10:15 16,8 55 0 0 46 156 1033,7
39 El Refugio 05-05-2026 10:00 16,6 56 0 0 9 135 1033,9
38 El Refugio 05-05-2026 09:45 15,9 56 0 0 347 114 1033,7
37 El Refugio 05-05-2026 09:30 15,1 60 0 0 273 84 1033,9
36 El Refugio 05-05-2026 09:15 14,7 62 0 0 278 58 1033,9
35 El Refugio 05-05-2026 09:00 14,2 64 0 0 347 76 1033,9
34 El Refugio 05-05-2026 08:45 13,6 66 0 0 347 77 1034,2
33 El Refugio 05-05-2026 08:30 13,3 70 0 0 127 54 1034,5
32 El Refugio 05-05-2026 08:15 13,4 66 0 0 127 44 1034,8
31 El Refugio 05-05-2026 08:00 13,7 63 0 0 127 19 1035,1
30 El Refugio 05-05-2026 07:45 14,5 59 0 0 127 12 1035,6
29 El Refugio 05-05-2026 07:30 15,1 54 0 0 105 0 1035,4
28 El Refugio 05-05-2026 07:15 13,7 58 0 0 213 0 1035,4
27 El Refugio 05-05-2026 07:00 11,5 71 0 0 360 0 1035,6
26 El Refugio 05-05-2026 06:45 11,1 78 0 0 360 0 1035,5
25 El Refugio 05-05-2026 06:30 10,9 79 0 0 360 0 1035,4
24 El Refugio 05-05-2026 06:15 10,7 78 0 0 360 0 1035,4
23 El Refugio 05-05-2026 06:00 10,6 79 0 0 360 0 1035,1
22 El Refugio 05-05-2026 05:45 10,5 80 0 0 360 0 1034,7
21 El Refugio 05-05-2026 05:30 10,4 81 0 0 360 0 1034,3
20 El Refugio 05-05-2026 05:15 10,3 80 0 0 360 0 1034,1
19 El Refugio 05-05-2026 05:00 10,3 80 0 0 360 0 1034,1
18 El Refugio 05-05-2026 04:45 10,2 80 0 0 360 0 1034
17 El Refugio 05-05-2026 04:30 10,2 81 0 0 360 0 1033,8
16 El Refugio 05-05-2026 04:00 10,4 79 0 0 360 0 1033,6
15 El Refugio 05-05-2026 03:45 10,7 77 0 0 360 0 1033,5
14 El Refugio 05-05-2026 03:30 11,2 75 0 0 360 0 1033,5
13 El Refugio 05-05-2026 03:15 11,4 75 0 0 360 0 1033,7
12 El Refugio 05-05-2026 03:00 11,5 73 0 0 360 0 1033,7
11 El Refugio 05-05-2026 02:45 11,6 74 0 0 360 0 1033,9
10 El Refugio 05-05-2026 02:30 11,6 73 0 0 360 0 1034
9 El Refugio 05-05-2026 02:15 11,3 75 0 0 360 0 1034,3
8 El Refugio 05-05-2026 02:00 11,1 75 0 0 360 0 1034,5
7 El Refugio 05-05-2026 01:45 11 76 0 0 360 0 1034,8
6 El Refugio 05-05-2026 01:30 10,9 76 0 0 360 0 1034,9
5 El Refugio 05-05-2026 01:15 10,9 78 0 0 360 0 1035,1
4 El Refugio 05-05-2026 01:00 11 77 0 0 360 0 1035,2
3 El Refugio 05-05-2026 00:45 11,2 76 0 0 360 0 1035,3
2 El Refugio 05-05-2026 00:30 11,2 75 0 0 360 0 1035,4
1 El Refugio 05-05-2026 00:00 11,1 72 0 0 360 0 1035,4